Location: Sternwarte Stuttgart
(48.7670°N, 9.1830°E)
Time: 02:15:27
(UTC+01:00)

PAYLOAD A - Pass Details

Date: 24 January 2019
Orbit: 691 x 833 km, 98.3° (Epoch: 19 February)

Event Time Altitude Azimuth Distance (km) Brightness Sun altitude
Rises 05:22:42 0° 12° (NNE) 3,134 7.3 -26.2°
Reaches altitude 10° 05:25:00 10° 11° (N) 2,194 6.5 -25.8°
Enters shadow 05:28:43 53° 355° (N) 864 4.1 -25.2°
